#timestamp,LO_Frequency,Hit,StdDev 
1592211615.7,286046995.4,N
1592211635.5,286046996.5,N
1592211655.4,286046996.7,N
1592211675.2,286046996.8,N
1592211695.1,286046998.3,N
1592211696.0,286046998.3,N
1592211715.8,286046998.3,N
1592211735.6,286047001.0,N
1592211755.5,286047000.9,N
1592211775.3,286047001.0,N
1592211795.2,286047001.2,N
1592211815.9,286046998.3,N
1592211835.7,286046998.2,N
1592211855.6,286047000.8,N
1592211875.4,286046998.9,N
1592211895.3,286046998.9,N
1592211915.1,286046996.9,N
1592211916.0,286046996.9,N
1592211935.8,286046998.4,N
1592211955.7,286046998.9,N
1592211975.5,286046998.9,N
1592211995.3,286046999.1,N
1592212015.2,286046998.8,N
1592212035.0,286046999.0,N
1592212035.9,286046999.0,N
1592212055.8,286046996.6,N
1592212075.6,286046999.6,N
1592212095.4,286046997.2,N
1592212115.3,286046997.7,N
1592212135.1,286046997.8,N
1592212155.9,286046997.4,N
1592212175.7,286046997.0,N
1592212195.5,286046996.8,N
1592212215.4,286046996.5,N
1592212235.2,286046996.9,N
1592212255.0,286046999.4,N
1592212255.9,286046999.4,N
1592212275.8,286046999.2,N
1592212295.6,286046999.4,N
1592212315.5,286046996.6,N
1592212335.3,286046999.1,N
1592212355.1,286046997.4,N
1592212375.9,286046997.7,N
1592212395.7,286046997.1,N
1592212415.6,286046997.2,N
1592212435.4,286046997.7,N
1592212455.2,286046998.0,N
1592212475.1,286046997.4,N
1592212476.0,286046997.4,N
1592212495.8,286046997.1,N
1592212515.6,286046997.2,N
1592212535.5,286046997.6,N
1592212555.3,286046996.6,Y
1592212575.2,286047001.1,P
1592212595.9,286047000.6,N
1592212615.7,286047001.0,N
1592212635.6,286046998.1,N
1592212655.4,286047001.1,N
1592212675.3,286047001.2,N
1592212695.1,286046998.2,N
1592212696.0,286046998.2,N
1592212715.8,286046998.2,N
1592212735.7,286047000.6,N
1592212755.5,286047001.1,N
1592212775.3,286047000.7,N
1592212795.2,286047000.6,N
1592212815.0,286047000.5,N
1592212815.9,286047000.5,N
1592212835.8,286046998.1,N
1592212855.6,286047001.0,N
1592212875.4,286047001.0,N
1592212895.3,286047000.9,N
1592212915.1,286046999.9,N
1592212935.9,286046998.8,N
1592212955.7,286047000.0,N
1592212975.5,286047000.5,N
1592212995.4,286047000.6,N
1592213015.2,286046999.0,N
1592213035.0,286046998.9,N
1592213035.9,286046998.9,N
1592213055.8,286046998.8,N
1592213075.6,286046998.8,N
1592213095.5,286046998.3,N
1592213115.3,286047001.2,N
1592213135.1,286046999.3,N
1592213155.9,286046998.6,N
1592213175.7,286047001.2,N
1592213195.6,286047001.0,N
1592213215.4,286047000.4,N
1592213235.2,286047000.6,N
1592213255.1,286047000.7,N
1592213256.0,286047000.7,N
1592213275.8,286047000.5,N
1592213295.7,286047000.8,N
1592213315.5,286047001.0,N
1592213335.3,286046998.5,N
1592213355.2,286047000.7,N
1592213375.9,286046998.6,N
1592213395.7,286046999.0,N
1592213415.6,286046998.5,N
1592213435.4,286047000.9,N
1592213455.3,286046998.2,N
1592213475.1,286047000.8,N
1592213476.0,286047000.8,N
1592213495.8,286047001.1,N
1592213515.7,286047000.5,N
1592213535.5,286047000.4,N
1592213555.4,286047000.8,N
1592213575.2,286047000.9,N
1592213595.1,286047000.5,N
1592213596.0,286047000.5,N
1592213615.8,286047000.9,N
1592213635.7,286047000.5,N
1592213655.5,286047000.5,N
1592213675.3,286047000.3,N
1592213695.2,286047000.5,N
1592213715.0,286047001.0,N
1592213715.9,286047001.0,N
1592213735.8,286047000.2,N
1592213755.6,286047000.5,N
1592213775.4,286047002.1,N
1592213795.3,286047001.8,N
1592213815.1,286047002.5,N
1592213835.8,286047002.5,N
1592213855.7,286047000.4,N
1592213875.5,286047000.3,N
1592213895.4,286047000.3,N
1592213915.2,286046999.7,N
1592213935.0,286047002.4,N
1592213935.9,286047002.4,N
1592213955.8,286047000.3,N
1592213975.6,286047000.0,N
1592213995.5,286047000.4,N
1592214015.3,286047000.0,N
1592214035.1,286047000.0,N
1592214055.9,286047000.5,N
1592214075.7,286046999.9,N
1592214095.5,286047000.3,N
1592214115.4,286047002.8,Y
1592214135.2,286047000.3,P
1592214155.1,286047000.5,N
1592214156.0,286047000.5,N
1592214175.8,286047000.5,N
1592214195.7,286047001.2,Y
1592214215.5,286047000.4,P
1592214235.3,286046998.3,P
1592214255.2,286046998.2,N
1592214275.0,286046998.9,N
1592214275.9,286046998.9,N
1592214295.7,286046998.7,N
1592214315.6,286046998.9,N
1592214335.4,286046999.5,N
1592214355.3,286047001.1,N
1592214375.1,286046998.4,N
1592214376.0,286046998.4,N
1592214395.8,286046998.7,N
1592214415.7,286046998.1,N
1592214435.5,286046998.4,N
1592214455.4,286047001.2,N
1592214475.2,286046998.3,N
1592214495.0,286046999.1,N
1592214495.9,286046999.1,N
1592214515.8,286046998.9,N
1592214535.6,286046999.2,N
1592214555.5,286046999.0,N
1592214575.3,286046998.3,N
1592214595.1,286046998.6,N
1592214615.9,286046998.9,N
1592214635.7,286046998.1,N
1592214655.5,286046998.8,N
1592214675.4,286046999.0,N
1592214695.2,286046999.0,N
1592214715.1,286047000.7,N
1592214716.0,286047000.7,N
1592214735.8,286047000.0,N
1592214755.6,286047003.9,Y
1592214775.5,286047001.6,P
1592214795.3,286047002.2,N
1592214815.2,286047004.1,N
1592214835.9,286047001.4,N
1592214855.7,286047002.3,N
1592214875.6,286047000.0,N
1592214895.4,286047002.0,N
1592214915.3,286047000.2,N
1592214935.1,286047000.3,N
1592214936.0,286047000.3,N
1592214955.8,286047000.0,N
1592214975.7,286047002.4,N
1592214995.5,286047003.7,N
1592215015.4,286047003.3,N
1592215035.2,286047001.4,N
1592215055.0,286047000.3,N
1592215055.9,286047000.3,N
1592215075.8,286047001.6,N
1592215095.6,286047001.9,N
1592215115.6,286047002.6,N
1592215135.4,286047000.9,N
1592215155.3,286047000.4,N
1592215175.1,286046998.2,N
1592215195.9,286046998.6,N
